SWA2619 KABQ-KPHX

Flight info

Callsign SWA2619
Flight time 1h 1m
Altitude 38000
Route RDRNR3 ZUN EAGUL6
Aircraft B736/M-SDE2E3FGHIRWXY/LB1

Departure

Time 2026-05-04 00:47
Airport Albuquerque International Sunport (KABQ)

Arrival

Time 2026-05-04 01:48
Airport Phoenix Sky Harbor International Airport (KPHX)
Time Latitude Longitude Altitude Speed Heading
2026-05-04 00:21 35.04690 -106.61591 5332 ft 0 kts 11°
2026-05-04 00:38 35.04677 -106.61594 5319 ft 3 kts 11°
2026-05-04 00:38 35.04659 -106.61598 5323 ft 3 kts 11°
2026-05-04 00:38 35.04641 -106.61603 5325 ft 3 kts 11°
2026-05-04 00:39 35.04625 -106.61598 5324 ft 2 kts 293°
2026-05-04 00:39 35.04623 -106.61594 5316 ft 0 kts 279°
2026-05-04 00:43 35.04624 -106.61609 5325 ft 6 kts 274°
2026-05-04 00:43 35.04603 -106.61656 5326 ft 7 kts 226°
2026-05-04 00:43 35.04567 -106.61698 5322 ft 0 kts 227°
2026-05-04 00:44 35.04565 -106.61716 5323 ft 0 kts 266°
2026-05-04 00:44 35.04558 -106.61790 5327 ft 25 kts 270°
2026-05-04 00:44 35.04558 -106.61983 5325 ft 23 kts 270°
2026-05-04 00:45 35.04540 -106.62134 5319 ft 11 kts 223°
2026-05-04 00:45 35.04524 -106.62139 5324 ft 0 kts 186°
2026-05-04 00:46 35.04522 -106.62140 5324 ft 4 kts 185°
2026-05-04 00:46 35.04436 -106.62043 5328 ft 21 kts 90°
2026-05-04 00:46 35.04433 -106.61646 5325 ft 91 kts 88°
2026-05-04 00:47 35.04430 -106.60537 5396 ft 162 kts 91°
2026-05-04 00:47 35.04379 -106.59012 5990 ft 197 kts 96°
2026-05-04 00:47 35.04699 -106.57277 6761 ft 218 kts 60°
2026-05-04 00:47 35.05296 -106.55644 7890 ft 217 kts 87°
2026-05-04 00:48 35.05208 -106.53754 8346 ft 236 kts 105°
2026-05-04 00:48 35.05195 -106.51633 8598 ft 277 kts 73°
2026-05-04 00:48 35.06308 -106.49579 8972 ft 307 kts 37°
2026-05-04 00:48 35.08252 -106.48602 9977 ft 302 kts
2026-05-04 00:49 35.10296 -106.48974 10794 ft 305 kts 332°
2026-05-04 00:49 35.12029 -106.50569 11049 ft 327 kts 304°
2026-05-04 00:49 35.12924 -106.53155 11620 ft 336 kts 278°
2026-05-04 00:49 35.13037 -106.56007 12637 ft 335 kts 264°
2026-05-04 00:50 35.12566 -106.58803 13665 ft 337 kts 256°
2026-05-04 00:50 35.11918 -106.61583 14480 ft 343 kts 255°
2026-05-04 00:50 35.11279 -106.64403 15274 ft 347 kts 256°
2026-05-04 00:50 35.10699 -106.67287 16069 ft 351 kts 257°
2026-05-04 00:51 35.10162 -106.70215 16899 ft 355 kts 258°
2026-05-04 00:51 35.09636 -106.73191 17655 ft 361 kts 258°
2026-05-04 00:51 35.09256 -106.76196 18409 ft 365 kts 269°
2026-05-04 00:51 35.09570 -106.79274 19169 ft 366 kts 280°
2026-05-04 00:52 35.10077 -106.82324 19994 ft 367 kts 280°
2026-05-04 00:52 35.10568 -106.85385 20777 ft 368 kts 279°
2026-05-04 00:52 35.11012 -106.88473 21363 ft 369 kts 275°
2026-05-04 00:52 35.10900 -106.91598 22090 ft 371 kts 260°
2026-05-04 00:53 35.10329 -106.94677 22845 ft 373 kts 257°
2026-05-04 00:53 35.09685 -106.97751 23558 ft 375 kts 257°
2026-05-04 00:53 35.09027 -107.00834 24172 ft 376 kts 257°
2026-05-04 00:53 35.08379 -107.03924 24833 ft 376 kts 258°
2026-05-04 00:54 35.07742 -107.07019 25510 ft 376 kts 258°
2026-05-04 00:54 35.07110 -107.10117 26154 ft 376 kts 258°
2026-05-04 00:54 35.06481 -107.13220 26721 ft 378 kts 258°
2026-05-04 00:54 35.05852 -107.16345 27299 ft 378 kts 258°
2026-05-04 00:55 35.05224 -107.19466 27874 ft 379 kts 258°
2026-05-04 00:55 35.04593 -107.22597 28443 ft 381 kts 259°
2026-05-04 00:55 35.03959 -107.25743 28996 ft 382 kts 259°
2026-05-04 00:55 35.03566 -107.28943 29522 ft 381 kts 267°
2026-05-04 00:56 35.03446 -107.32182 30028 ft 382 kts 269°
2026-05-04 00:56 35.03375 -107.35384 30461 ft 383 kts 269°
2026-05-04 00:56 35.03309 -107.38620 31019 ft 380 kts 269°
2026-05-04 00:56 35.03235 -107.41836 31564 ft 378 kts 269°
2026-05-04 00:57 35.03154 -107.45041 32040 ft 377 kts 269°
2026-05-04 00:57 35.03069 -107.48232 32567 ft 375 kts 269°
2026-05-04 00:57 35.02977 -107.51394 33205 ft 371 kts 269°
2026-05-04 00:57 35.02880 -107.54533 33661 ft 370 kts 269°
2026-05-04 00:58 35.02782 -107.57676 34050 ft 370 kts 269°
2026-05-04 00:58 35.02680 -107.60806 34464 ft 368 kts 269°
2026-05-04 00:58 35.02577 -107.63913 34931 ft 365 kts 268°
2026-05-04 00:58 35.02471 -107.66988 35365 ft 362 kts 269°
2026-05-04 00:59 35.02369 -107.70054 35731 ft 361 kts 269°
2026-05-04 00:59 35.02267 -107.73113 36057 ft 360 kts 268°
2026-05-04 00:59 35.02163 -107.76122 36373 ft 359 kts 268°
2026-05-04 00:59 35.02055 -107.79172 36682 ft 359 kts 268°
2026-05-04 01:00 35.01947 -107.82218 37042 ft 357 kts 269°
2026-05-04 01:00 35.01840 -107.85241 37397 ft 355 kts 269°
2026-05-04 01:00 35.01736 -107.88236 37802 ft 353 kts 268°
2026-05-04 01:01 35.01524 -107.94303 37885 ft 361 kts 269°
2026-05-04 01:01 35.01312 -108.00394 37882 ft 356 kts 268°
2026-05-04 01:02 35.01092 -108.06334 37886 ft 350 kts 268°
2026-05-04 01:02 35.00866 -108.12256 37890 ft 348 kts 268°
2026-05-04 01:03 35.00653 -108.18121 37879 ft 344 kts 269°
2026-05-04 01:03 35.00439 -108.23944 37886 ft 342 kts 269°
2026-05-04 01:04 35.00211 -108.29727 37890 ft 341 kts 269°
2026-05-04 01:04 34.99988 -108.35502 37886 ft 341 kts 269°
2026-05-04 01:05 34.99763 -108.41291 37887 ft 342 kts 268°
2026-05-04 01:05 34.99524 -108.47093 37873 ft 343 kts 268°
2026-05-04 01:06 34.99298 -108.52888 37871 ft 345 kts 268°
2026-05-04 01:06 34.99057 -108.58749 37881 ft 347 kts 268°
2026-05-04 01:07 34.98814 -108.64647 37870 ft 349 kts 268°
2026-05-04 01:07 34.98567 -108.70577 37870 ft 350 kts 268°
2026-05-04 01:08 34.98316 -108.76523 37855 ft 350 kts 268°
2026-05-04 01:08 34.98057 -108.82452 37857 ft 351 kts 268°
2026-05-04 01:09 34.97807 -108.88405 37855 ft 352 kts 268°
2026-05-04 01:09 34.97544 -108.94367 37854 ft 352 kts 268°
2026-05-04 01:10 34.97286 -109.00335 37843 ft 352 kts 268°
2026-05-04 01:10 34.97014 -109.06291 37906 ft 352 kts 268°
2026-05-04 01:11 34.96746 -109.12220 37829 ft 352 kts 268°
2026-05-04 01:11 34.95745 -109.18053 37844 ft 357 kts 251°
2026-05-04 01:12 34.93710 -109.23584 37830 ft 357 kts 250°
2026-05-04 01:12 34.91653 -109.29091 37842 ft 355 kts 251°
2026-05-04 01:13 34.89636 -109.34576 37848 ft 354 kts 251°
2026-05-04 01:13 34.87644 -109.40008 37844 ft 353 kts 251°
2026-05-04 01:14 34.85638 -109.45454 37851 ft 352 kts 251°
2026-05-04 01:14 34.83638 -109.50883 37847 ft 351 kts 251°
2026-05-04 01:15 34.81644 -109.56313 37854 ft 351 kts 251°
2026-05-04 01:15 34.79642 -109.61741 37849 ft 352 kts 251°
2026-05-04 01:16 34.77630 -109.67177 37832 ft 352 kts 251°
2026-05-04 01:16 34.75631 -109.72578 37830 ft 352 kts 251°
2026-05-04 01:17 34.73622 -109.78019 37834 ft 353 kts 251°
2026-05-04 01:17 34.71606 -109.83462 37831 ft 352 kts 251°
2026-05-04 01:18 34.69585 -109.88901 37827 ft 352 kts 251°
2026-05-04 01:18 34.67572 -109.94324 37837 ft 352 kts 250°
2026-05-04 01:19 34.65551 -109.99718 37558 ft 355 kts 250°
2026-05-04 01:19 34.64533 -110.02445 37303 ft 353 kts 250°
2026-05-04 01:19 34.63522 -110.05153 37039 ft 352 kts 251°
2026-05-04 01:19 34.62510 -110.07863 36792 ft 353 kts 250°
2026-05-04 01:20 34.61495 -110.10581 36534 ft 354 kts 251°
2026-05-04 01:20 34.60486 -110.13301 36284 ft 354 kts 251°
2026-05-04 01:20 34.59469 -110.16027 36037 ft 354 kts 251°
2026-05-04 01:20 34.58449 -110.18748 35786 ft 353 kts 251°
2026-05-04 01:21 34.57430 -110.21452 35552 ft 352 kts 250°
2026-05-04 01:21 34.56411 -110.24151 35306 ft 351 kts 251°
2026-05-04 01:21 34.55400 -110.26841 35063 ft 349 kts 251°
2026-05-04 01:21 34.54394 -110.29514 34822 ft 347 kts 251°
2026-05-04 01:22 34.53393 -110.32176 34585 ft 345 kts 251°
2026-05-04 01:22 34.52400 -110.34814 34233 ft 342 kts 251°
2026-05-04 01:22 34.51420 -110.37417 33819 ft 337 kts 251°
2026-05-04 01:22 34.50451 -110.39995 33306 ft 334 kts 251°
2026-05-04 01:23 34.49504 -110.42506 32837 ft 330 kts 251°
2026-05-04 01:23 34.48550 -110.45020 32413 ft 326 kts 251°
2026-05-04 01:23 34.47605 -110.47507 32005 ft 322 kts 251°
2026-05-04 01:23 34.46677 -110.49958 31627 ft 319 kts 251°
2026-05-04 01:24 34.45749 -110.52416 31239 ft 323 kts 250°
2026-05-04 01:24 34.44805 -110.54909 30846 ft 327 kts 250°
2026-05-04 01:24 34.43854 -110.57424 30441 ft 329 kts 250°
2026-05-04 01:24 34.42898 -110.59936 30032 ft 328 kts 250°
2026-05-04 01:25 34.41942 -110.62448 29577 ft 328 kts 250°
2026-05-04 01:25 34.40990 -110.64948 29131 ft 326 kts 249°
2026-05-04 01:25 34.40043 -110.67437 28704 ft 325 kts 249°
2026-05-04 01:25 34.39100 -110.69914 28290 ft 323 kts 249°
2026-05-04 01:26 34.38173 -110.72352 27894 ft 321 kts 249°
2026-05-04 01:26 34.37238 -110.74813 27498 ft 320 kts 249°
2026-05-04 01:26 34.36305 -110.77251 27101 ft 319 kts 249°
2026-05-04 01:26 34.35279 -110.79632 26697 ft 321 kts 241°
2026-05-04 01:27 34.33837 -110.81727 26319 ft 325 kts 233°
2026-05-04 01:27 34.32282 -110.83717 25910 ft 325 kts 232°
2026-05-04 01:27 34.30718 -110.85699 25508 ft 324 kts 232°
2026-05-04 01:27 34.29168 -110.87669 25099 ft 322 kts 232°
2026-05-04 01:28 34.27657 -110.89601 24722 ft 319 kts 232°
2026-05-04 01:28 34.26140 -110.91548 24303 ft 316 kts 232°
2026-05-04 01:28 34.24638 -110.93481 23927 ft 314 kts 232°
2026-05-04 01:28 34.23147 -110.95397 23544 ft 312 kts 232°
2026-05-04 01:29 34.21668 -110.97311 23089 ft 310 kts 232°
2026-05-04 01:29 34.20207 -110.99201 22687 ft 307 kts 231°
2026-05-04 01:29 34.18755 -111.01076 22290 ft 303 kts 231°
2026-05-04 01:29 34.17315 -111.02933 21913 ft 301 kts 231°
2026-05-04 01:30 34.15891 -111.04771 21531 ft 299 kts 230°
2026-05-04 01:30 34.14470 -111.06596 21194 ft 298 kts 231°
2026-05-04 01:30 34.13529 -111.07808 20947 ft 299 kts 230°
2026-05-04 01:30 34.12101 -111.09643 20580 ft 301 kts 230°
2026-05-04 01:31 34.10666 -111.11487 20206 ft 302 kts 230°
2026-05-04 01:31 34.09227 -111.13336 19829 ft 303 kts 230°
2026-05-04 01:31 34.07785 -111.15191 19457 ft 303 kts 229°
2026-05-04 01:31 34.06350 -111.17039 19070 ft 301 kts 229°
2026-05-04 01:32 34.04918 -111.18866 18689 ft 298 kts 229°
2026-05-04 01:32 34.03502 -111.20682 18298 ft 296 kts 227°
2026-05-04 01:32 34.02062 -111.22432 17912 ft 292 kts 227°
2026-05-04 01:32 34.00676 -111.24218 17496 ft 291 kts 228°
2026-05-04 01:33 33.99310 -111.26000 17117 ft 289 kts 227°
2026-05-04 01:33 33.97943 -111.27773 16734 ft 288 kts 227°
2026-05-04 01:33 33.96577 -111.29536 16360 ft 286 kts 227°
2026-05-04 01:33 33.95221 -111.31283 15996 ft 285 kts 227°
2026-05-04 01:34 33.93863 -111.33022 15627 ft 284 kts 226°
2026-05-04 01:34 33.92512 -111.34745 15369 ft 280 kts 226°
2026-05-04 01:34 33.91193 -111.36428 15072 ft 281 kts 225°
2026-05-04 01:34 33.89840 -111.38153 14736 ft 285 kts 226°
2026-05-04 01:35 33.88471 -111.39900 14398 ft 289 kts 225°
2026-05-04 01:35 33.86969 -111.41523 14015 ft 291 kts 216°
2026-05-04 01:35 33.85321 -111.42913 13665 ft 288 kts 213°
2026-05-04 01:35 33.83669 -111.44271 13268 ft 286 kts 213°
2026-05-04 01:36 33.82038 -111.45633 12874 ft 284 kts 213°
2026-05-04 01:36 33.80430 -111.47000 12506 ft 282 kts 214°
2026-05-04 01:36 33.78844 -111.48360 12251 ft 276 kts 214°
2026-05-04 01:36 33.77317 -111.49668 12311 ft 265 kts 214°
2026-05-04 01:37 33.75819 -111.50950 12325 ft 268 kts 214°
2026-05-04 01:37 33.74259 -111.52282 12331 ft 279 kts 214°
2026-05-04 01:37 33.72680 -111.53634 12330 ft 278 kts 214°
2026-05-04 01:37 33.71152 -111.54945 12291 ft 260 kts 214°
2026-05-04 01:38 33.69736 -111.56159 12284 ft 242 kts 214°
2026-05-04 01:38 33.68403 -111.57307 12315 ft 234 kts 214°
2026-05-04 01:38 33.67079 -111.58450 12309 ft 234 kts 214°
2026-05-04 01:38 33.65742 -111.59605 11954 ft 244 kts 214°
2026-05-04 01:39 33.64348 -111.60795 11533 ft 243 kts 214°
2026-05-04 01:39 33.62979 -111.61963 11138 ft 239 kts 214°
2026-05-04 01:39 33.61648 -111.63099 10832 ft 232 kts 214°
2026-05-04 01:39 33.60333 -111.64218 10450 ft 230 kts 214°
2026-05-04 01:40 33.59029 -111.65320 10072 ft 228 kts 214°
2026-05-04 01:40 33.57736 -111.66409 9663 ft 227 kts 214°
2026-05-04 01:40 33.56433 -111.67493 9181 ft 228 kts 214°
2026-05-04 01:40 33.55126 -111.68574 8748 ft 227 kts 214°
2026-05-04 01:41 33.53835 -111.69637 8425 ft 222 kts 214°
2026-05-04 01:41 33.52601 -111.70663 8170 ft 215 kts 214°
2026-05-04 01:41 33.51396 -111.71678 7912 ft 208 kts 214°
2026-05-04 01:41 33.50231 -111.72660 7668 ft 201 kts 214°
2026-05-04 01:42 33.49103 -111.73610 7431 ft 195 kts 214°
2026-05-04 01:42 33.48005 -111.74533 7173 ft 190 kts 214°
2026-05-04 01:42 33.46941 -111.75436 6890 ft 186 kts 218°
2026-05-04 01:42 33.46072 -111.76563 6589 ft 183 kts 231°
2026-05-04 01:43 33.45260 -111.77720 6268 ft 180 kts 218°
2026-05-04 01:43 33.44241 -111.78558 5974 ft 175 kts 216°
2026-05-04 01:43 33.43304 -111.79460 5632 ft 172 kts 229°
2026-05-04 01:43 33.42563 -111.80568 5317 ft 170 kts 230°
2026-05-04 01:44 33.41822 -111.81660 5022 ft 168 kts 230°
2026-05-04 01:44 33.41079 -111.82740 4670 ft 169 kts 229°
2026-05-04 01:44 33.40350 -111.83849 4289 ft 170 kts 236°
2026-05-04 01:44 33.40164 -111.85242 3856 ft 182 kts 279°
2026-05-04 01:45 33.40521 -111.86699 3477 ft 182 kts 277°
2026-05-04 01:45 33.40779 -111.88158 3059 ft 180 kts 277°
2026-05-04 01:45 33.41723 -111.90750 2662 ft 156 kts 289°
2026-05-04 01:46 33.42180 -111.91873 2461 ft 143 kts 283°
2026-05-04 01:46 33.42421 -111.92940 2288 ft 126 kts 272°
2026-05-04 01:46 33.42551 -111.94031 1814 ft 137 kts 272°
2026-05-04 01:46 33.42733 -111.95087 1647 ft 129 kts 279°
2026-05-04 01:47 33.42859 -111.96431 1619 ft 192 kts 272°
2026-05-04 01:47 33.42893 -111.97871 1583 ft 158 kts 270°
2026-05-04 01:47 33.42882 -111.99103 1379 ft 137 kts 270°
2026-05-04 01:47 33.42883 -112.00155 1187 ft 114 kts 269°
2026-05-04 01:48 33.42887 -112.00997 1134 ft 87 kts 271°
2026-05-04 01:48 33.42884 -112.01450 1131 ft 46 kts 271°
2026-05-04 01:48 33.42918 -112.01649 1132 ft 20 kts 326°
2026-05-04 01:48 33.42986 -112.01638 1127 ft 7 kts 52°
2026-05-04 01:49 33.42993 -112.01615 1129 ft 0 kts 79°
2026-05-04 01:49 33.43000 -112.01607 1128 ft 1 kts 26°
2026-05-04 01:49 33.43019 -112.01597 1128 ft 14 kts 27°
2026-05-04 01:49 33.43111 -112.01569 1124 ft 14 kts 359°
2026-05-04 01:50 33.43195 -112.01557 1128 ft 8 kts 36°
2026-05-04 01:50 33.43212 -112.01521 1128 ft 1 kts 77°
2026-05-04 01:50 33.43216 -112.01446 1128 ft 19 kts 89°
2026-05-04 01:50 33.43214 -112.01286 1128 ft 19 kts 89°